GFSSE_sfc_temp_057.txt.gz
Temp
67 70 76 77 78 77 78 77 77 76 77 77 77 77 76 76 76 75 75 75 76 76 76 76 76 76 76 76 75 75 75 75 75 75 76 76 76 76 75 74 74 74 76
70 72 74 76 77 77 77 76 76 76 77 77 77 77 76 76 76 75 75 75 75 76 76 75 75 75 75 75 75 75 75 74 73 73 73 74 75 76 75 74 74 74 76
71 73 74 75 76 76 76 76 75 76 77 77 77 76 76 75 75 75 74 74 75 75 75 75 74 74 74 74 74 74 73 72 72 71 71 68 71 76 75 74 74 74 75
72 72 73 73 75 75 75 75 75 76 77 77 77 76 76 75 75 75 74 74 74 75 75 74 74 73 73 73 73 73 72 71 70 69 67 67 70 76 75 74 74 73 73
71 72 72 73 74 75 75 75 75 75 76 76 76 76 75 75 74 74 73 73 74 74 74 74 73 73 73 73 73 72 71 69 68 65 63 64 65 74 74 74 72 72 72
70 72 71 73 75 75 75 75 75 75 76 76 76 76 75 74 73 73 73 73 73 73 73 73 72 72 72 72 72 71 70 68 64 59 60 63 65 74 74 73 72 72 71
70 71 71 73 74 74 75 75 75 75 75 75 75 75 74 74 73 73 73 72 72 73 73 72 72 71 71 71 71 70 68 66 59 58 59 60 66 73 73 73 72 72 72
69 71 72 69 70 73 74 74 74 74 74 74 74 74 74 73 73 73 73 72 72 72 72 72 71 71 71 70 69 68 65 63 58 56 57 59 71 73 73 72 72 72 72
67 68 71 70 69 68 70 71 72 72 73 73 73 73 72 72 72 72 72 72 72 72 72 71 71 71 70 69 68 66 64 62 53 55 60 59 71 73 73 72 72 72 71
63 63 65 68 68 69 70 67 68 70 71 71 70 69 68 68 69 69 68 70 71 71 71 70 70 70 69 68 66 63 61 60 52 53 55 62 71 72 72 72 72 72 72
60 61 60 66 67 69 70 67 66 67 68 68 67 65 63 66 68 67 66 68 70 70 70 69 68 66 63 63 63 61 58 51 52 52 54 67 71 72 72 71 71 71 71
55 60 57 61 64 66 70 68 67 68 69 69 66 65 66 67 67 66 63 64 65 65 68 68 66 62 58 54 54 57 52 52 52 52 57 67 70 70 70 70 70 70 70
52 54 55 56 57 59 64 68 67 66 67 68 65 66 66 65 64 63 62 60 60 59 58 58 56 56 54 54 53 52 52 52 50 53 60 65 68 69 69 69 69 69 69
52 52 53 54 55 57 58 66 66 65 65 66 66 66 65 64 62 62 62 61 60 58 56 55 54 54 54 54 53 53 52 52 52 53 57 61 65 67 68 68 68 68 68
50 51 52 52 53 55 57 64 63 63 63 63 64 65 66 64 63 62 61 60 59 59 56 54 54 53 53 54 54 53 52 52 51 51 54 58 62 64 65 66 67 67 67
50 50 51 53 54 55 58 61 61 61 61 61 61 62 63 63 61 60 58 57 57 57 56 56 55 52 51 55 55 54 51 52 53 51 50 50 58 59 61 63 64 65 66
48 49 50 54 58 55 58 58 58 59 59 58 58 59 59 60 59 58 57 56 55 56 56 55 54 53 53 52 50 50 50 50 50 49 49 48 48 54 57 59 61 62 63
47 48 49 55 56 56 56 57 57 57 57 56 57 56 57 57 57 56 55 53 54 53 52 51 50 48 45 46 46 46 47 48 47 47 47 46 45 45 49 54 55 57 59
47 47 48 50 54 54 55 55 54 54 54 54 54 54 53 53 54 53 52 51 51 50 47 45 42 43 44 45 46 44 44 43 42 46 44 44 43 42 43 48 49 51 55
46 47 47 51 53 53 53 52 51 50 50 51 51 51 50 50 50 50 48 48 47 45 43 41 40 39 40 43 46 43 41 40 40 39 39 42 41 40 40 40 38 41 50
45 45 46 50 52 52 51 50 50 47 47 47 48 47 48 46 45 44 43 43 43 43 41 41 39 43 37 38 41 40 39 38 38 37 36 36 38 38 39 39 38 38 39
45 45 45 48 52 52 53 47 49 47 45 45 46 45 46 43 43 42 41 40 40 39 39 39 39 36 35 34 39 38 35 38 37 38 35 38 34 36 37 38 37 37 36
44 45 46 48 51 53 47 47 46 46 46 44 43 43 42 41 40 40 39 38 37 37 37 36 37 38 34 34 34 38 33 34 32 36 35 34 34 32 33 34 36 36 35
45 45 47 48 52 49 49 47 47 46 45 44 42 40 38 38 37 37 37 36 36 35 36 35 36 36 36 34 34 36 32 33 32 32 33 32 33 34 31 32 31 34 33
45 45 46 48 49 48 49 49 48 46 42 42 40 39 35 35 36 36 36 35 35 36 34 35 34 34 34 33 32 32 31 30 30 30 29 29 31 31 31 30 29 29 31
44 45 47 50 48 46 48 48 46 42 39 39 38 36 34 33 33 34 35 33 33 34 34 33 33 33 32 32 31 31 31 31 28 27 26 25 25 29 29 29 28 29 28

GFSSE_sfc_temp_060.txt.gz
Temp
67 71 76 78 78 78 77 77 77 77 77 77 77 76 76 76 76 75 75 76 76 76 77 76 76 76 76 76 76 75 75 74 74 74 75 76 76 76 75 74 74 74 76
69 72 75 76 77 77 76 76 76 76 77 77 77 76 76 76 75 75 75 75 75 76 76 76 75 76 76 75 75 74 73 73 72 72 72 73 75 76 75 74 74 74 75
70 72 73 75 76 76 76 76 76 77 77 77 76 76 76 75 75 75 75 75 75 76 75 75 75 75 74 74 74 73 73 72 71 71 70 67 72 76 75 74 74 74 74
71 71 72 73 75 75 75 75 76 76 77 77 76 76 75 75 75 75 74 74 75 75 75 75 74 74 74 73 73 72 71 71 70 68 65 66 70 75 75 74 73 73 73
70 71 71 73 75 75 75 75 75 76 76 76 76 75 75 74 74 74 74 74 74 74 74 74 74 73 73 72 72 71 70 69 67 64 61 63 64 73 74 73 72 72 71
69 70 71 73 75 75 75 75 75 75 76 76 75 75 74 74 73 73 73 73 73 73 74 73 73 72 72 71 71 70 69 68 64 59 60 64 65 74 74 73 72 72 71
69 70 70 72 74 74 75 75 75 75 75 75 75 74 74 73 73 73 73 73 73 73 73 73 72 72 71 70 70 69 67 66 57 57 59 61 68 73 74 73 73 72 72
69 69 70 69 71 72 73 74 74 73 74 74 74 74 73 73 73 73 73 73 73 73 73 72 72 71 70 69 68 67 64 62 58 56 58 60 71 74 74 73 72 72 72
67 68 69 69 69 68 70 71 72 72 73 73 73 73 72 72 72 72 72 72 72 72 72 71 71 70 69 68 66 64 63 61 52 55 60 60 71 73 73 72 72 72 72
62 63 66 67 68 68 69 67 68 70 70 71 70 69 68 68 69 68 67 70 71 71 71 70 69 68 67 66 64 62 60 59 53 54 56 66 71 72 72 72 71 71 71
60 61 61 65 67 68 70 67 66 67 68 67 67 65 63 66 67 66 65 68 69 69 69 68 67 64 63 63 62 60 58 52 53 54 56 68 70 71 71 71 70 70 70
55 59 58 61 65 66 69 68 67 68 69 69 67 65 65 66 66 66 62 63 64 65 66 66 64 62 57 53 53 56 52 52 54 57 63 67 69 70 70 69 70 69 69
54 55 60 56 59 63 65 68 65 65 65 66 65 65 66 65 63 63 62 61 58 58 56 56 54 54 53 53 53 52 52 52 52 56 60 65 68 69 69 69 69 68 68
53 54 56 55 55 57 61 64 66 65 66 65 65 65 65 64 63 61 61 61 58 56 54 53 53 53 53 53 53 52 51 50 51 54 57 60 64 67 68 68 68 68 68
51 52 53 52 54 55 56 61 64 64 65 65 65 65 64 63 62 61 61 60 59 57 55 52 53 52 52 54 55 53 50 49 49 49 51 57 61 64 65 66 66 66 67
50 50 51 52 53 54 55 63 62 62 62 62 63 65 65 64 62 60 59 58 57 57 56 55 55 54 54 54 53 52 50 48 48 47 47 47 56 59 61 62 63 65 65
49 49 50 51 53 54 56 60 59 60 60 59 59 61 62 62 61 59 57 56 56 56 55 54 53 53 52 51 48 47 47 46 46 45 45 45 44 53 56 58 60 62 63
47 48 49 53 54 57 56 57 57 57 58 57 57 57 58 59 59 57 56 54 54 54 53 51 51 49 48 45 44 42 42 44 44 43 43 43 42 41 47 52 56 58 59
47 47 48 50 53 55 53 55 54 54 54 55 55 55 55 56 56 55 53 52 51 50 50 50 44 47 44 43 43 41 39 39 38 43 41 40 40 39 39 47 48 52 54
46 46 47 48 51 53 52 52 52 51 50 51 52 52 52 52 53 52 51 50 49 47 45 43 43 40 43 43 44 40 37 36 37 36 36 40 38 37 37 37 36 40 49
44 45 45 48 48 52 51 50 50 48 48 47 48 49 49 49 49 50 49 49 48 43 41 44 43 43 38 40 38 37 36 36 36 34 34 34 36 37 37 36 36 36 37
45 45 45 51 48 53 54 51 50 47 45 45 46 46 47 46 46 45 45 42 41 41 40 40 41 36 34 34 37 36 33 35 35 36 34 36 32 33 35 36 35 35 33
44 44 46 49 50 51 50 47 46 47 46 45 44 43 43 44 42 41 41 40 39 39 41 38 38 39 33 32 34 37 32 33 32 35 32 32 32 31 30 32 32 33 32
46 46 46 47 52 51 49 46 48 44 43 45 43 42 41 41 40 39 39 38 37 36 36 36 37 36 35 32 32 34 30 33 32 30 31 30 30 31 29 29 28 30 30
46 45 46 46 49 49 49 49 48 44 40 43 41 39 39 38 38 37 36 35 35 34 34 34 34 34 34 32 32 30 30 29 29 30 29 29 31 30 30 28 28 28 29
44 45 45 45 46 47 49 48 48 42 41 40 39 38 38 37 34 34 35 34 34 33 33 32 32 33 32 32 32 31 31 30 28 27 26 25 26 29 29 29 28 28 28

GFSSE_sfc_temp_063.txt.gz
Temp
72 76 75 77 78 78 77 77 76 77 77 77 77 76 76 76 76 76 76 76 77 76 77 77 77 78 77 76 75 75 74 74 74 74 76 76 76 76 75 74 74 77 76
75 77 74 77 77 77 76 76 76 77 77 77 77 76 76 76 75 75 75 76 76 77 76 76 76 76 75 75 74 73 73 73 72 72 73 75 75 75 75 74 74 76 75
75 77 77 75 76 76 76 76 76 76 77 77 76 76 76 75 75 75 75 75 75 76 76 76 75 75 74 74 73 73 73 72 71 71 72 77 76 75 75 74 73 74 74
75 76 76 73 75 76 75 75 76 76 77 77 76 76 75 75 75 75 75 75 75 75 76 76 75 74 73 73 72 72 71 71 70 70 74 75 77 75 74 74 73 73 73
74 75 75 73 75 75 75 75 76 76 76 76 76 75 75 75 74 74 74 74 74 75 75 75 74 73 72 72 72 71 70 69 68 71 73 74 75 75 74 73 73 72 72
73 75 73 74 75 75 75 75 75 75 76 75 75 75 74 74 74 74 74 74 74 74 74 74 73 72 72 71 71 70 69 68 68 71 72 73 75 75 74 73 73 72 72
73 74 75 73 74 74 75 75 75 75 75 75 75 74 74 74 73 73 73 73 73 73 73 73 72 71 70 70 69 68 67 66 69 71 72 74 74 74 74 74 73 73 72
73 73 74 70 71 72 74 74 74 74 74 74 74 74 74 73 73 73 73 73 73 73 72 72 71 70 69 68 67 67 65 64 68 70 71 73 72 74 74 73 73 73 72
72 72 73 74 72 68 70 71 72 73 73 73 73 73 72 72 72 72 72 72 72 72 71 70 69 69 68 67 66 64 63 62 69 69 71 73 71 74 73 72 72 72 71
69 71 71 72 73 73 73 67 68 70 70 71 70 69 68 68 68 68 67 70 71 70 70 69 68 68 67 66 64 62 61 62 67 68 71 72 71 73 72 71 71 71 71
64 66 69 71 71 72 72 70 66 67 67 67 67 65 64 71 70 70 65 68 69 68 68 67 66 65 64 63 62 60 61 64 66 68 67 68 70 71 71 70 70 70 70
62 64 66 68 69 70 70 69 72 71 71 70 70 70 70 69 69 68 64 64 65 65 66 65 63 61 60 61 61 60 61 62 64 64 65 67 69 70 70 69 69 69 69
62 62 63 64 64 67 68 69 68 68 70 71 70 70 68 66 66 67 64 62 63 60 63 62 62 61 59 60 59 59 59 60 62 63 63 66 67 69 69 69 69 68 68
60 61 61 62 62 63 64 66 69 69 69 68 69 69 66 65 64 63 62 61 60 62 61 60 60 59 58 57 57 56 56 57 59 60 61 61 65 67 68 68 69 68 68
59 59 60 59 61 61 62 64 66 69 69 69 68 68 69 66 65 63 63 62 59 59 61 60 59 58 57 56 55 53 54 54 54 54 58 57 61 64 65 66 67 67 67
56 57 58 58 59 60 61 64 66 67 66 67 67 67 67 66 63 62 62 59 58 59 59 57 56 55 54 53 53 53 52 52 52 51 52 54 57 59 62 64 65 65 64
55 55 55 56 58 58 59 63 63 64 64 64 63 65 65 64 63 61 60 57 57 57 55 56 54 53 51 51 51 51 51 50 50 50 50 50 50 55 58 60 60 61 61
54 53 54 56 57 57 59 61 61 60 61 62 60 62 62 62 63 60 59 56 57 55 54 53 52 50 48 50 49 49 49 49 48 48 48 48 48 48 52 54 56 58 59
53 53 52 54 56 57 58 58 59 57 58 58 58 58 59 60 60 59 57 54 54 53 52 51 49 48 47 47 47 46 46 46 47 48 46 45 45 46 46 48 50 52 55
52 52 52 53 55 55 56 54 55 52 52 54 55 55 56 56 56 57 55 52 52 50 49 49 47 48 49 47 47 44 44 44 45 44 45 45 44 44 44 43 43 46 49
49 49 50 51 52 54 53 52 52 50 50 50 50 52 53 54 54 54 53 50 52 50 49 48 48 46 45 46 45 43 43 44 43 43 44 44 43 43 43 42 42 42 42
51 49 49 51 51 53 56 54 53 50 48 48 48 47 49 50 51 51 49 48 48 47 47 49 48 46 46 45 47 45 40 42 43 42 43 42 41 42 41 41 40 40 40
48 48 50 51 51 53 54 50 47 48 48 45 46 45 46 47 47 48 47 47 47 50 48 49 47 46 43 41 43 47 40 42 41 42 40 40 40 40 40 39 39 39 39
49 50 50 50 51 52 50 51 49 50 47 46 47 45 44 44 45 46 45 47 47 49 47 47 47 46 45 42 41 41 41 45 43 37 40 40 40 39 39 39 38 38 38
50 48 49 50 51 51 50 52 50 48 48 46 45 43 41 41 42 43 44 44 44 45 46 45 43 42 45 43 42 40 40 40 40 42 38 38 39 39 39 39 38 38 37
46 47 48 48 50 48 49 50 51 48 43 43 42 41 40 40 39 40 40 43 43 42 43 43 42 42 42 41 42 41 42 43 41 41 38 37 39 38 39 38 37 37 37

GFSSE_sfc_temp_069.txt.gz
Temp
78 81 75 77 76 76 77 77 76 76 76 77 76 76 76 76 76 77 77 77 77 78 77 77 77 76 75 75 75 74 74 75 75 75 75 75 75 75 75 74 74 75 75
84 84 74 76 77 76 77 76 76 76 76 77 76 76 76 76 76 76 77 76 76 77 77 77 76 75 74 74 74 74 74 74 74 75 75 75 75 75 75 74 74 74 75
85 85 80 75 76 76 76 76 76 76 76 76 76 76 76 76 76 76 76 76 76 77 77 75 75 74 73 73 73 73 74 74 74 75 75 77 76 75 75 74 74 75 75
86 86 84 73 75 75 75 76 76 76 76 76 76 76 76 75 75 75 76 76 76 76 76 74 74 73 73 72 72 73 74 74 74 75 80 78 78 75 75 74 74 74 74
86 86 83 73 75 75 75 75 75 75 75 76 75 75 75 75 75 75 75 75 75 75 75 74 73 73 72 72 72 73 74 74 74 77 78 77 75 75 75 74 73 73 73
85 86 74 74 75 75 75 75 75 75 75 75 75 75 75 74 74 74 74 74 74 74 74 73 72 72 71 71 71 72 73 74 76 79 77 74 74 74 75 74 73 72 72
83 84 80 73 74 74 75 75 75 75 75 75 74 74 74 74 74 74 73 73 73 72 72 72 71 71 71 70 71 72 72 72 74 73 71 71 71 74 74 73 73 72 72
84 84 82 71 71 73 74 74 74 74 74 74 74 74 73 73 73 73 73 73 72 72 71 71 70 70 69 70 70 70 69 71 76 75 73 73 72 74 73 73 72 71 71
85 83 82 81 75 68 70 71 72 73 73 73 73 73 72 72 72 72 72 72 72 71 71 70 69 69 68 69 69 68 67 68 76 75 75 73 71 74 73 73 71 71 70
82 82 81 81 81 79 77 67 69 70 71 71 70 68 67 68 68 68 68 70 71 70 70 69 68 67 67 67 67 67 67 68 72 70 69 69 71 72 71 71 70 69 69
79 80 80 79 80 79 79 73 67 67 68 67 67 65 66 74 73 73 66 68 69 69 68 68 66 65 64 64 65 66 68 69 70 70 69 68 70 72 71 70 69 68 67
77 78 80 79 79 79 79 76 77 75 74 75 74 72 75 76 75 72 65 64 66 66 66 66 66 65 67 70 70 68 71 69 69 68 68 68 70 71 70 69 68 67 67
80 78 80 78 78 78 78 77 78 76 75 75 75 75 75 71 71 71 68 68 66 64 67 67 68 70 69 69 69 69 69 68 67 67 63 67 69 69 69 69 68 67 66
80 80 79 80 77 79 78 78 78 78 76 76 75 74 72 67 68 69 70 69 68 70 69 68 67 66 66 66 67 67 67 67 66 66 63 61 68 70 69 68 67 66 65
79 80 80 79 79 78 77 79 76 79 76 78 77 75 74 71 69 68 66 65 67 67 67 67 66 65 63 64 64 63 63 64 63 63 62 58 64 67 67 67 66 65 65
80 79 80 78 77 75 76 78 76 79 78 76 73 74 75 72 71 68 64 64 66 68 67 65 64 62 60 62 61 61 61 61 62 62 61 59 60 63 64 65 65 65 64
80 79 78 77 77 77 76 78 79 78 77 77 75 76 74 72 70 69 64 65 67 66 64 60 59 58 57 58 58 59 59 59 59 59 60 59 58 58 61 62 63 63 63
79 78 78 75 75 76 76 77 77 78 78 78 79 75 74 73 70 69 67 66 62 62 58 57 56 56 55 55 57 58 57 57 57 57 57 58 57 57 57 58 60 60 61
80 78 76 74 73 73 74 76 76 76 75 77 78 74 75 73 71 68 65 62 60 58 58 54 54 56 54 53 55 56 56 55 55 56 54 54 54 54 53 53 54 56 58
80 78 77 74 72 72 73 73 74 74 71 72 73 69 68 71 69 67 63 59 58 56 54 55 52 55 53 53 55 54 54 54 54 53 52 53 52 52 52 52 51 51 54
77 76 75 73 71 72 70 69 69 69 70 64 63 66 66 64 65 63 60 58 57 55 54 55 50 49 50 53 49 50 51 52 52 52 52 51 50 50 50 50 50 50 50
74 74 73 73 72 71 71 70 71 70 69 67 62 61 60 60 61 61 58 56 55 52 51 50 49 50 49 51 51 49 43 46 49 51 51 50 49 49 48 49 48 48 48
72 72 71 71 71 71 70 70 69 68 65 60 60 56 54 54 56 57 57 56 54 52 50 49 50 51 46 50 54 54 45 45 44 47 47 48 48 47 47 46 46 46 46
72 72 71 71 71 70 70 67 65 63 60 61 60 56 52 51 53 54 55 55 54 54 52 49 52 51 50 48 53 54 51 51 45 38 45 46 47 47 46 45 45 45 45
73 70 70 70 70 69 68 67 65 61 63 67 63 57 52 47 49 51 51 52 52 52 51 50 48 49 51 51 51 50 49 51 52 47 39 40 44 45 45 45 44 43 43
72 68 67 68 67 68 67 66 64 62 63 63 59 54 50 48 46 46 48 49 50 50 48 48 48 49 49 52 53 50 49 48 46 49 44 41 40 42 44 44 43 44 43

GFSSE_sfc_temp_072.txt.gz
Temp
72 74 75 77 77 77 77 77 76 76 76 76 76 76 76 77 77 77 77 77 76 77 77 77 76 76 76 75 75 75 75 75 75 75 75 75 75 75 75 74 74 74 76
76 76 74 76 77 76 76 76 76 76 76 76 76 76 76 76 77 76 76 76 77 77 77 76 75 75 74 74 75 75 75 75 75 74 74 75 75 75 75 74 74 74 75
79 77 76 75 76 76 76 76 76 76 76 76 76 76 76 76 76 76 76 76 76 76 76 76 74 74 73 74 75 75 75 76 75 74 73 71 72 75 75 74 75 76 76
81 77 77 73 75 75 75 75 75 76 76 76 76 76 76 76 76 76 76 76 75 76 76 75 74 73 73 74 74 75 76 75 74 73 72 72 74 75 75 75 75 74 75
81 80 76 73 75 75 75 75 75 75 75 76 76 76 75 75 75 75 75 75 75 75 75 74 73 73 73 74 74 74 75 74 72 72 70 69 73 74 75 74 73 73 72
81 80 72 74 75 75 75 75 75 75 75 75 75 75 75 75 75 74 74 74 74 74 73 73 73 72 72 73 74 74 73 72 70 68 68 71 72 75 75 73 73 72 71
80 76 74 73 74 74 74 75 75 75 75 74 74 74 74 74 74 74 74 73 73 72 72 72 72 71 72 72 72 73 73 71 71 69 70 70 70 74 74 73 72 72 72
78 76 74 70 71 72 73 74 74 74 74 74 74 74 74 73 73 73 73 72 72 72 72 71 71 71 71 71 71 71 70 70 70 67 65 67 72 74 73 72 72 71 70
80 77 74 73 71 69 70 71 72 73 73 73 73 72 72 72 72 72 71 71 72 71 71 70 70 70 70 70 70 69 68 67 65 66 69 65 72 73 72 71 70 69 69
77 77 74 73 72 71 69 68 69 70 70 70 69 68 67 67 68 68 67 70 71 70 70 69 69 69 69 69 69 67 66 66 64 63 64 67 71 72 71 69 69 68 68
75 75 76 75 73 73 71 68 66 67 67 67 66 65 65 66 66 67 65 68 69 69 68 68 67 67 66 66 67 66 66 65 62 62 65 68 70 71 70 68 68 68 67
71 73 74 74 75 75 75 69 69 69 68 68 67 66 68 67 66 65 62 64 66 66 67 67 67 66 64 61 61 64 65 63 61 61 64 68 70 69 69 69 68 67 66
74 73 74 74 74 73 72 71 70 69 68 68 67 66 69 65 63 61 60 59 58 60 61 62 61 60 61 60 60 60 60 58 57 59 61 67 68 69 69 68 67 66 66
72 72 74 74 73 73 72 71 71 70 69 68 68 67 66 64 64 62 60 59 57 58 57 58 57 58 58 59 59 59 59 57 61 59 59 62 67 69 69 68 67 66 65
70 71 73 73 74 73 73 71 70 70 69 69 69 69 67 65 63 63 63 62 59 63 59 57 57 56 56 57 57 56 56 55 56 57 55 58 64 67 67 67 66 66 65
72 71 73 73 75 75 71 70 71 69 71 69 69 69 69 66 64 61 60 62 61 61 58 60 58 54 53 54 54 54 53 53 53 52 52 53 60 64 66 66 66 65 64
71 72 70 72 74 71 67 69 69 69 69 69 67 69 70 67 65 62 59 60 62 61 60 57 56 54 50 52 52 51 51 51 51 51 51 50 50 58 62 64 64 64 63
70 70 70 72 71 69 68 69 69 68 67 67 68 68 68 69 68 64 60 59 61 59 55 54 53 52 51 48 49 47 47 48 49 49 49 48 48 48 54 60 61 62 62
70 70 69 68 67 68 68 67 67 67 66 66 67 68 68 68 67 65 62 59 59 56 55 54 51 53 51 49 49 46 45 44 46 49 46 46 46 45 44 53 54 57 59
69 69 70 69 67 66 65 65 64 64 64 66 65 64 66 68 67 65 64 59 57 55 54 53 51 51 51 51 53 49 44 43 43 42 43 46 44 44 43 44 42 46 55
66 68 70 67 66 66 65 63 61 63 61 62 63 63 64 65 67 64 61 58 56 54 53 53 51 50 48 50 46 45 44 43 42 41 41 41 42 43 42 41 40 41 44
67 66 67 68 66 66 66 65 64 63 59 60 59 59 61 61 62 61 59 57 56 54 53 51 49 47 47 47 45 44 38 38 40 42 40 42 39 40 41 42 41 41 39
62 63 65 67 67 66 65 62 59 58 55 54 55 56 57 58 61 60 58 57 56 55 51 49 49 49 46 48 49 47 38 34 35 38 39 39 39 37 37 39 40 41 40
65 64 63 63 63 64 63 61 61 60 58 57 54 53 55 54 57 58 57 56 56 55 51 48 50 50 47 45 47 50 46 40 34 30 36 37 38 39 37 37 38 40 40
60 58 59 60 61 61 62 62 59 56 55 52 51 50 50 51 54 55 56 55 54 53 51 49 48 48 48 49 48 46 44 44 40 33 28 31 34 36 37 37 37 37 39
58 57 57 58 59 60 61 60 58 57 52 51 51 51 51 50 50 51 53 54 54 53 51 49 49 49 48 49 49 48 46 44 38 37 31 30 32 34 36 36 37 37 36

GFSSE_sfc_temp_075.txt.gz
Temp
68 71 75 76 76 77 77 77 76 76 76 76 76 76 77 77 77 76 76 76 77 77 76 76 76 76 76 76 76 75 75 75 75 75 75 75 76 76 75 75 74 74 76
72 74 74 76 77 77 77 76 76 76 76 76 76 76 77 76 77 76 76 76 76 77 76 76 75 75 76 76 75 76 75 74 73 73 74 75 75 75 75 74 74 74 75
73 74 75 75 76 76 76 75 76 76 76 76 76 76 76 76 77 76 76 75 76 76 75 75 75 75 75 75 76 76 75 74 73 73 72 70 72 75 76 75 75 76 76
75 74 74 73 75 75 75 75 75 76 76 76 76 76 76 76 76 76 76 75 76 75 75 75 75 75 75 74 75 75 74 74 72 71 70 70 73 76 75 75 75 75 75
75 75 74 73 75 75 75 75 75 75 75 76 76 76 76 76 75 75 75 75 75 75 74 74 74 74 74 74 74 74 73 72 70 69 67 70 72 75 75 73 73 73 72
75 76 72 73 75 75 74 75 75 75 75 75 75 75 75 75 74 74 74 74 74 74 74 74 73 73 73 74 73 73 72 71 70 67 68 70 70 74 74 73 72 72 71
73 73 73 73 74 74 74 74 74 75 74 74 74 74 74 74 74 73 73 73 73 73 73 73 73 72 72 73 73 72 71 70 68 69 69 68 70 73 73 72 72 71 71
72 72 73 69 71 72 73 74 74 74 74 74 74 74 74 73 73 73 72 72 72 72 72 72 72 71 72 71 71 70 68 68 65 63 63 67 71 73 72 71 70 70 69
75 73 71 71 70 69 70 71 72 72 73 73 73 73 72 72 72 72 71 72 72 71 71 71 71 71 71 70 69 67 66 65 60 62 67 67 71 72 71 70 69 69 68
72 72 69 69 69 69 69 67 68 69 70 70 69 68 67 67 68 68 67 70 71 70 70 70 69 70 70 69 68 66 64 64 60 62 66 68 70 71 70 69 69 69 68
72 71 70 68 69 69 68 67 66 67 67 66 66 64 63 63 64 64 65 68 69 69 69 68 69 68 66 66 65 65 63 59 59 62 67 68 70 70 70 69 68 67 67
70 71 71 69 69 69 71 66 67 67 66 65 64 63 64 63 63 63 62 64 66 66 67 69 68 65 61 58 60 63 59 58 57 60 66 68 69 69 69 68 67 67 66
66 70 72 72 72 71 70 68 67 67 65 64 64 63 63 62 61 60 58 57 58 59 60 61 59 58 58 57 57 59 58 56 54 55 63 67 69 69 69 68 67 66 66
65 67 70 73 72 72 70 69 68 68 66 64 64 64 63 60 59 58 58 56 55 55 56 55 55 56 56 56 56 56 55 53 54 56 58 63 67 69 68 67 67 66 65
65 66 68 72 73 72 70 70 69 68 67 66 66 65 66 61 58 58 57 57 55 55 55 54 54 55 54 55 54 54 53 53 55 55 54 59 65 68 67 67 67 66 65
70 68 68 70 72 73 72 70 68 68 68 67 66 67 65 64 61 59 58 57 55 56 55 55 53 52 51 52 52 52 51 51 51 51 52 54 60 65 67 67 66 65 65
68 70 69 69 71 72 72 70 68 68 68 67 67 67 66 65 62 60 59 57 56 58 60 58 56 53 53 52 49 49 49 49 49 49 49 48 48 56 64 65 65 64 64
65 67 69 72 70 70 72 69 68 69 67 68 67 67 68 66 64 60 59 58 56 56 56 56 53 50 48 51 49 46 46 47 47 47 47 46 45 46 53 62 63 63 62
67 67 66 69 69 68 67 69 65 66 67 66 67 67 67 67 65 63 60 59 56 54 55 54 52 52 49 48 49 47 44 43 44 46 44 44 45 44 43 52 55 59 61
66 65 69 67 69 67 65 66 63 62 64 66 65 66 66 67 66 63 61 60 58 55 53 53 51 50 49 50 51 47 45 41 41 40 41 44 42 43 42 42 42 47 58
63 62 66 65 64 66 63 63 64 64 63 60 63 63 65 66 66 64 61 59 57 55 53 52 51 49 48 49 46 44 44 42 40 39 39 39 40 41 40 40 40 40 44
65 66 65 66 64 66 67 67 65 63 58 65 59 60 63 65 65 64 61 58 57 55 52 51 50 48 47 49 44 42 38 38 42 40 38 40 38 39 39 40 39 39 39
61 62 65 65 64 66 66 60 56 56 55 55 56 59 58 62 64 63 61 59 57 55 52 51 50 50 47 47 49 45 37 36 34 36 36 37 36 35 36 37 39 39 38
64 65 65 64 63 65 63 61 61 62 60 63 63 57 53 56 60 60 60 58 57 56 53 51 51 52 50 45 46 49 46 41 34 31 35 37 36 36 34 34 36 38 37
59 56 56 58 59 62 62 62 60 60 60 51 50 51 50 50 55 58 58 57 56 56 54 51 49 49 50 47 49 45 42 42 39 37 33 33 34 34 35 36 34 34 37
54 53 53 56 56 56 61 58 57 58 51 49 48 48 47 49 51 54 54 56 56 55 53 51 50 50 48 50 49 49 46 44 41 36 33 34 36 35 34 33 35 34 35